• Join FlightAware (Why Join?)
  • Login
  • US Flag GB Flag 
16:14 EDT


 

Airport Tracker/Info


-or-


 

Live Flight TrackerFlight Track Log ✈ UAL3740 ✈ 11-Apr-2013 ✈ KPVD - KIAD

Flight Track Log - Related Links

Times and Time Zones

All times are in EDT time to prevent confusion due to time zone crossing. See the UAL3740 flight status page for this flight to view local times or setup timezone preferences in your user account.

Time Position Orientation Groundspeed Altitude Reporting Facility
EDT Latitude Longitude Course Direction KTS MPH feet Rate Location/Type
10:25 41.7517 -71.4133 22° Northeast 174 200 1,600  Level Boston Center
10:26 41.7664 -71.4242 331° Northwest 164 189 2,300 1,860 Climbing Boston Center
10:26 41.7978 -71.4347 346° North 207 238 3,500 1,920 Climbing Boston Center
10:27 41.8147 -71.4597 312° West 222 255 4,300 2,400 Climbing Boston Center
10:27 41.8317 -71.4983 301° West 250 288 6,000 3,780 Climbing Boston Center
10:28 41.8444 -71.5400 292° West 220 253 8,200 3,360 Climbing Boston Center
10:28 41.8614 -71.5786 301° West 236 272 9,400 1,920 Climbing Boston Center
10:29 41.8872 -71.6564 294° West 236 272 11,300 2,100 Climbing Boston Center
10:30 41.9167 -71.7314 298° West 242 278 13,600 1,860 Climbing Boston Center
10:31 41.9256 -71.8289 277° West 242 278 15,100 1,200 Climbing Boston Center
10:32 41.9033 -71.9353 254° West 269 310 16,100 1,140 Climbing Boston Center
10:33 41.8828 -72.0414 255° West 318 366 17,400 1,740 Climbing Boston Center
10:34 41.8583 -72.1697 256° West 329 379 19,700 2,040 Climbing Boston Center
10:35 41.8689 -72.2894 277° West 323 372 21,500 1,560 Climbing Boston Center
10:36 41.8836 -72.4122 279° West 329 379 22,800 1,140 Climbing Boston Center
10:37 41.9003 -72.5433 280° West 346 398 23,900 1,020 Climbing Boston Center
10:38 41.9167 -72.6744 280° West 353 406 24,900 900 Climbing Boston Center
10:39 41.9308 -72.8169 278° West 365 420 25,700 540 Climbing Boston Center
10:40 41.9178 -72.9533 263° West 372 428 26,000 -480 Climbing Boston Center
10:41 41.8422 -73.0669 228° Southwest 372 428 24,800 -1,020 Descending Boston Center
10:42 41.7728 -73.1750 229° Southwest 379 436 24,000 -420 Descending Boston Center
10:43 41.6992 -73.2853 228° Southwest 390 449 24,000  Level Boston Center
10:44 41.6294 -73.3872 228° Southwest 390 449 24,000  Level Boston Center
10:45 41.5578 -73.4942 228° Southwest 390 449 24,000  Level Boston Center
10:46 41.4878 -73.5983 228° Southwest 385 443 24,000  Level Boston Center
10:47 41.4094 -73.7133 228° Southwest 397 457 24,000  Level Boston Center
10:48 41.3950 -73.7358 229° Southwest 403 464 24,000  Level New York Center
10:49 41.3153 -73.8483 227° Southwest 415 478 24,000  Level New York Center
10:50 41.2350 -73.9633 227° Southwest 421 484 24,000  Level New York Center
10:51 41.1569 -74.0781 228° Southwest 421 484 24,000  Level New York Center
10:52 41.0822 -74.2119 234° Southwest 426 490 24,000  Level New York Center
10:53 41.0222 -74.3408 238° Southwest 420 483 24,000  Level New York Center
10:54 40.9622 -74.4669 238° Southwest 420 483 24,000  Level New York Center
10:55 40.9039 -74.5983 240° Southwest 415 478 24,000  Level New York Center
10:56 40.8431 -74.7292 238° Southwest 415 478 24,000  Level New York Center
10:57 40.7844 -74.8628 240° Southwest 415 478 24,000  Level New York Center
10:58 40.7278 -74.9908 240° Southwest 415 478 24,000  Level New York Center
10:59 40.6692 -75.1186 239° Southwest 415 478 24,000  Level New York Center
11:00 40.6081 -75.2458 238° Southwest 415 478 24,000  Level New York Center
11:01 40.5489 -75.3758 239° Southwest 415 478 24,000  Level New York Center
11:02 40.4894 -75.5056 239° Southwest 415 478 24,000 -480 Level New York Center
11:03 40.4322 -75.6353 240° Southwest 415 478 23,100 -1,200 Descending New York Center
11:04 40.3728 -75.7564 237° Southwest 409 471 21,600 -1,440 Descending New York Center
11:05 40.3178 -75.8778 239° Southwest 403 464 20,200 -1,080 Descending New York Center
11:06 40.2606 -75.9906 236° Southwest 408 470 19,500 -960 Descending New York Center
11:07 40.2028 -76.1194 240° Southwest 385 443 18,300 -1,140 Descending New York Center
11:08 40.1453 -76.2372 237° Southwest 385 443 17,300 -1,020 Descending New York Center
11:09 40.0500 -76.4333 238° Southwest 368 423 15,700 -840 Descending Potomac TRACON
11:10 40.0000 -76.5333 237° Southwest 364 419 15,100 -360 Descending Potomac TRACON
11:11 39.9500 -76.6500 241° Southwest 369 425 15,000  Descending Potomac TRACON
11:12 39.9000 -76.7667 241° Southwest 367 422 15,100  Climbing Potomac TRACON
11:13 39.8500 -76.8667 237° Southwest 362 417 15,100 -420 Level Potomac TRACON
11:14 39.8000 -76.9667 237° Southwest 355 409 14,400 -1,080 Descending Potomac TRACON
11:15 39.7500 -77.0833 241° Southwest 340 391 13,100 -1,320 Descending Potomac TRACON
11:16 39.7167 -77.1667 243° Southwest 294 338 11,800 -1,260 Descending Potomac TRACON
11:17 39.6667 -77.2500 232° Southwest 255 293 10,600 -1,140 Descending Potomac TRACON
11:18 39.6333 -77.3333 243° Southwest 249 287 9,600 -900 Descending Potomac TRACON
11:19 39.5833 -77.3833 218° Southwest 256 295 8,800 -780 Descending Potomac TRACON
11:20 39.5333 -77.4333 218° Southwest 252 290 8,200 -660 Descending Potomac TRACON
11:21 39.4667 -77.4500 191° South 218 251 7,600 -720 Descending Potomac TRACON
11:22 39.4000 -77.4500 180° South 222 255 6,800 -720 Descending Potomac TRACON
11:23 39.3500 -77.4500 180° South 226 260 6,200 -720 Descending Potomac TRACON
11:24 39.2833 -77.4500 180° South 236 272 5,400 -600 Descending Potomac TRACON
11:25 39.2167 -77.4500 180° South 241 277 5,000 -600 Descending Potomac TRACON
11:26 39.1500 -77.4500 180° South 224 258 4,200 -1,200 Descending Potomac TRACON
11:27 39.0833 -77.4667 191° South 214 246 2,600 -1,320 Descending Potomac TRACON
11:28 39.0333 -77.4667 180° South 185 213 1,600 -900 Descending Potomac TRACON
11:29 39.0000 -77.4667 180° South 138 159 900 -780 Descending Potomac TRACON
11:31 38.9474 -77.4599 180° South  Level Estimated
11:38 38.9474 -77.4599 349° North  Level Estimated
11:39 38.9474 -77.4599 349° North  Level Estimated
11:40 38.9474 -77.4599 349° North  Level Estimated